Tracking 18987 objects as of 25-Feb-2018
HD Live streaming from Space Station
objects crossing your sky now

FENGYUN 1C DEB

Track FENGYUN 1C DEB now!
10-day predictions


NORAD ID: 31295
Int'l Code: 1999-025BPD
Perigee: 858.5 km
Apogee: 971.1 km
Inclination: 98.4 °
Period: 103.2 minutes
Semi major axis: 7285 km
RCS: 0.0104 m2 (small)
Launch date: May 10, 1999
Source: People's Republic of China (PRC)
Launch site: Taiyaun Space Center, China (TSC)

Note: This is SATELLITE DEBRIS
aabbcc
Your satellite tracking list
Your tracking list is empty




NASA's NSSDC Master Catalog

Two Line Element Set (TLE):
1 31295U 99025BPD 18055.77758899 -.00000009  00000-0  20995-4 0  9993
2 31295  98.3575 100.2258 0077304 297.1008  62.2285 13.96005312558749
Source of the keplerian elements: AFSPC